Вернуться в каталог

ATLAS 5 CENTAUR DEB

LostHEO
NORAD 43993·DEBRIS·🇺🇸 United States

Запущен Sep 17, 2014 с Cape Canaveral Space Force Station

Loading…

Ближайшие Пролёты (ближайшие 24 часа)

TLE

УстаревшееSource: Space-Track

Эпоха: Nov 18, 2024, 00:59 UTC

1 43993U 14055AY  24323.04161689  .00000040  00000-0  00000-0 0  9996
2 43993  20.6334 144.9589 5186101 166.5197 215.7620  1.96030449 43775

Отслеживайте ATLAS 5 CENTAUR DEB в реальном времени с AllMySat

Download on the App Store